Location: Unspecified
(0.0000°N, 0.0000°E)
Time: 09:26:06

Vanguard 1 Rocket - Pass Details

Date: 11 December 2017
Orbit: 655 x 4222 km, 34.3° (Epoch: 19 March)

Event Time Altitude Azimuth Distance (km) Brightness Sun altitude
Rises 22:45:47 0° 318° (NW) 7,379 12.0 -61.7°
Enters shadow 22:50:23 - 324° (NW) 6,792 11.7 -62.3°
Reaches altitude 10° 22:50:55 10° 325° (NW) 6,729 - -62.4°
Maximum altitude 23:14:00 45° 33° (NNE) 5,088 - -65.0°
Exits shadow 23:32:56 16° 94° (E) 6,163 11.5 -66.4°
Drops below altitude 10° 23:35:45 10° 99° (E) 6,505 11.7 -66.5°
Sets 23:40:26 0° 105° (ESE) 7,144 12.0 -66.7°
